[[{"header":{"parameterUnit":"m.s-1","parameterCategory":1,"la1":30.2991,"la2":30.254,"lo1":-89.0895,"lo2":-89.0444,"dy":0.0017,"dx":0.0017,"nx":28,"ny":28,"refTime":"2025-09-07T03:00:00:Z","depth":0,"parameterNumber":2,"parameterNumberName":"U-component_of_WINDS"},"data":[0,0,0,0,0,0,0,0,0,0,0,0,0,0,0,0,0,0,0,0,0,0,0,0,0,0,0,0,0,0,0,0,0,0,0,0,0,0,0,0,0,0,0,0,0,0,0,0,0,0,0,0,0,0,0,0,0,0,-1.6475,-1.6476,0,-1.6534,-1.6534,-1.6535,-1.6515,-1.6514,-1.6513,-1.6511,-1.6572,-1.6575,-1.6578,0,0,0,0,0,0,0,0,0,0,0,0,0,-1.6348,-1.6351,-1.6475,-1.6476,-1.6477,-1.6533,-1.6534,-1.6535,-1.6515,-1.6514,-1.6512,-1.6511,-1.6571,-1.6574,-1.6578,0,0,0,0,0,0,0,0,0,0,0,0,0,-1.6405,-1.6351,-1.6475,-1.6474,-1.6474,-1.6533,-1.6534,-1.6535,-1.6516,-1.6514,-1.6512,-1.651,-1.657,-1.6574,-1.6578,-1.6642,0,0,-1.6591,-1.6593,0,0,0,0,0,0,0,0,-1.6401,-1.6409,-1.6473,-1.6474,-1.6475,-1.6515,-1.6512,-1.6571,-1.6516,-1.65,-1.6511,-1.6509,-1.6555,-1.656,-1.6575,-1.6645,-1.6648,-1.6592,-1.6594,-1.6596,-1.6597,0,0,0,0,0,0,0,-1.6397,-1.6407,-1.6498,-1.6474,-1.6475,-1.6471,-1.6476,-1.6523,-1.6537,-1.6501,-1.65,-1.6507,-1.6555,-1.6571,-1.6577,-1.6649,-1.6591,-1.6595,-1.6598,-1.6599,-1.6775,-1.6777,0,0,0,0,0,0,-1.6393,-1.6404,-1.6496,-1.65,-1.6433,-1.6474,-1.6481,-1.6504,-1.6537,-1.654,-1.6509,-1.6506,-1.6565,-1.6572,-1.6579,-1.6657,-1.6596,-1.66,-1.6602,-1.6773,-1.6776,-1.6778,0,0,0,0,0,0,-1.639,-1.6402,-1.6494,-1.6451,-1.6463,-1.6479,-1.6505,-1.6506,-1.6523,-1.6542,-1.6545,-1.6523,-1.6564,-1.6573,-1.6627,-1.6659,-1.6602,-1.6605,-1.6771,-1.6774,-1.6777,-1.6814,0,0,0,0,0,0,-1.6387,-1.6401,-1.6425,-1.6452,-1.6465,-1.6541,-1.6507,-1.6509,-1.653,-1.6527,-1.6556,-1.6559,-1.6563,-1.6621,-1.6631,-1.6664,-1.6609,-1.6768,-1.6772,-1.6776,-1.681,-1.6818,-1.6825,0,0,0,0,0,-1.6382,-1.6433,-1.6426,-1.6438,-1.6496,-1.6543,-1.6551,-1.6554,-1.6532,-1.6557,-1.657,-1.6559,-1.6653,-1.6626,-1.6638,-1.6672,-1.6766,-1.6771,-1.6776,-1.6806,-1.6816,-1.6824,0,0,0,0,0,0,-1.641,-1.6437,-1.643,-1.6491,-1.6515,-1.654,-1.6571,-1.6564,-1.6595,-1.6591,-1.6593,-1.66,-1.6656,-1.6669,-1.6639,-1.6736,-1.6706,-1.6714,-1.6726,-1.6735,-1.6743,-1.6739,-1.6612,0,0,0,0,0,-1.6423,-1.6459,-1.648,-1.6532,-1.6544,-1.6556,-1.6576,-1.6576,-1.6602,-1.6612,-1.6628,-1.6654,-1.6689,-1.6713,-1.6746,-1.6811,-1.6818,-1.684,-1.6847,-1.6853,-1.686,-1.6897,-1.6907,-1.6794,-1.6794,-1.6794,0,0,-1.6451,-1.647,-1.6492,-1.6538,-1.6557,-1.6594,-1.6565,-1.6605,-1.6634,-1.6618,-1.6671,-1.6684,-1.6712,-1.6772,-1.6799,-1.6785,-1.6893,-1.6859,-1.6864,-1.6868,-1.6903,-1.6913,-1.6923,-1.6797,-1.6797,-1.6796,0,0,-1.6521,-1.6538,-1.6584,-1.6603,-1.6631,-1.6639,-1.6649,-1.6676,-1.6684,-1.6736,-1.6726,-1.6759,-1.682,-1.6841,-1.6859,-1.6937,-1.6928,-1.6947,-1.6987,-1.7023,-1.7031,-1.7039,-1.7069,-1.7079,-1.6954,-1.6954,-1.6954,0,-1.6552,-1.6608,-1.6608,-1.665,-1.6671,-1.6658,-1.6705,-1.6723,-1.6762,-1.6776,-1.6759,-1.6836,-1.6854,-1.6919,-1.6938,-1.6953,-1.6966,-1.6945,-1.703,-1.7038,-1.7045,-1.7073,-1.7084,-1.6956,-1.6956,-1.6956,-1.6956,0,-1.6645,-1.6684,-1.6717,-1.6755,-1.6779,-1.6823,-1.6831,-1.6855,-1.6852,-1.6862,-1.6916,-1.6936,-1.6975,-1.699,-1.6987,-1.7055,-1.7045,-1.7029,-1.7,-1.7059,-1.7085,-1.7095,-1.696,-1.6959,-1.6958,-1.6958,0,0,-1.6736,-1.6772,-1.6785,-1.6802,-1.6832,-1.6862,-1.6906,-1.6943,-1.6964,-1.6991,-1.7028,-1.7079,-1.7065,-1.7086,-1.7086,-1.7116,-1.7178,-1.7097,-1.7097,-1.7113,-1.7255,-1.7269,-1.7281,-1.7171,-1.7173,-1.7175,-1.7253,0,-1.681,-1.6886,-1.6888,-1.6958,-1.6995,-1.6982,-1.702,-1.7043,-1.7053,-1.7085,-1.7095,-1.7132,-1.7109,-1.7122,-1.7152,-1.7164,-1.7207,-1.7158,-1.7207,-1.7209,-1.7203,-1.7294,-1.7309,-1.7382,-1.7263,-1.7265,-1.7266,0,-1.6907,-1.6936,-1.701,-1.7036,-1.7051,-1.7085,-1.712,-1.715,-1.7176,-1.7181,-1.7204,-1.7199,-1.7244,-1.7212,-1.7274,-1.7241,-1.7261,-1.727,-1.7273,-1.7279,-1.7243,-1.7305,-1.7405,-1.7417,-1.7282,-1.7281,-1.728,0,-1.6968,-1.7026,-1.7078,-1.7093,-1.7123,-1.7148,-1.7161,-1.7185,-1.7207,-1.7237,-1.7252,-1.7286,-1.7305,-1.7332,-1.7337,-1.7313,-1.74,-1.7368,-1.7407,-1.7407,-1.7428,-1.7427,-1.7534,-1.7437,-1.7437,-1.7436,-1.7436,0,-1.7051,-1.7098,-1.7106,-1.7138,-1.719,-1.7191,-1.7242,-1.7253,-1.7275,-1.7309,-1.73,-1.7333,-1.7336,-1.737,-1.7374,-1.7426,-1.7434,-1.744,-1.7441,-1.7443,-1.7442,-1.7457,-1.7453,-1.7439,-1.7439,-1.7438,-1.7438,0,-1.7129,-1.7136,-1.7193,-1.7217,-1.7224,-1.7261,-1.7281,-1.7313,-1.732,-1.7364,-1.7375,-1.7387,-1.7427,-1.7434,-1.748,-1.7483,-1.7546,-1.754,-1.7537,-1.7537,-1.7576,-1.7573,-1.7699,-1.7716,-1.7606,-1.7607,-1.7608,0,-1.7183,-1.7219,-1.7246,-1.7269,-1.7284,-1.732,-1.7343,-1.7344,-1.7368,-1.74,-1.7428,-1.7466,-1.7497,-1.7561,-1.7575,-1.761,-1.7607,-1.7648,-1.7612,-1.7613,-1.761,-1.7609,-1.7613,-1.7656,-1.7657,-1.7658,-1.7659,0,-1.7279,-1.7281,-1.7314,-1.7348,-1.7375,-1.7402,-1.7428,-1.7447,-1.7452,-1.7479,-1.7519,-1.7543,-1.7591,-1.7629,-1.7665,-1.7679,-1.7671,-1.767,-1.7681,-1.7684,-1.7681,-1.7685,-1.7558,-1.7668,-1.7667,-1.7666,-1.7666,-1.7665,-1.7348,-1.738,-1.7404,-1.7441,-1.746,-1.7484,-1.7515,-1.7526,-1.756,-1.7598,-1.7597,-1.7642,-1.7666,-1.7713,-1.773,-1.7765,-1.7752,-1.7767,-1.7772,-1.7776,-1.7781,-1.7674,-1.7771,-1.7771,-1.777,-1.777,-1.777,0,-1.7445,-1.746,-1.7494,-1.753,-1.7559,-1.7547,-1.7575,-1.76,-1.7639,-1.7663,-1.7693,-1.774,-1.7777,-1.7793,-1.783,-1.7855,-1.7852,-1.7865,-1.7865,-1.7868,-1.779,-1.7777,-1.7867,-1.7867,-1.7867,-1.7867,-1.7867,-1.7867,-1.7499,-1.7552,-1.7556,-1.7619,-1.7633,-1.7676,-1.7693,-1.7716,-1.7735,-1.7787,-1.7818,-1.7828,-1.7849,-1.7887,-1.7921,-1.7924,-1.7939,-1.7954,-1.7957,-1.7883,-1.7874,-1.7864,-1.7853,-1.7957,-1.7957,-1.8033,-1.8033,-1.8034]},{"header":{"parameterUnit":"m.s-1","parameterCategory":1,"la1":30.2991,"la2":30.254,"lo1":-89.0895,"lo2":-89.0444,"dy":0.0017,"dx":0.0017,"nx":28,"ny":28,"refTime":"2025-09-07T03:00:00:Z","depth":0,"parameterNumber":3,"parameterNumberName":"V-component_of_WINDS"},"data":[0,0,0,0,0,0,0,0,0,0,0,0,0,0,0,0,0,0,0,0,0,0,0,0,0,0,0,0,0,0,0,0,0,0,0,0,0,0,0,0,0,0,0,0,0,0,0,0,0,0,0,0,0,0,0,0,0,0,-5.4847,-5.4847,0,-5.4863,-5.4863,-5.4863,-5.4801,-5.4799,-5.4797,-5.4795,-5.4809,-5.4811,-5.4813,0,0,0,0,0,0,0,0,0,0,0,0,0,-5.4761,-5.4763,-5.4847,-5.4847,-5.4847,-5.4862,-5.4863,-5.4863,-5.4801,-5.4799,-5.4797,-5.4795,-5.4808,-5.481,-5.4813,0,0,0,0,0,0,0,0,0,0,0,0,0,-5.479,-5.4764,-5.4847,-5.4818,-5.4816,-5.4862,-5.4863,-5.4863,-5.4802,-5.4799,-5.4796,-5.4794,-5.4807,-5.481,-5.4813,-5.4887,0,0,-5.4823,-5.4824,0,0,0,0,0,0,0,0,-5.4788,-5.4793,-5.4822,-5.482,-5.4818,-5.4827,-5.4837,-5.4871,-5.4802,-5.4807,-5.4795,-5.4792,-5.4817,-5.4819,-5.4828,-5.4888,-5.4888,-5.4823,-5.4825,-5.4826,-5.4827,0,0,0,0,0,0,0,-5.4786,-5.4792,-5.4853,-5.4823,-5.482,-5.4804,-5.4805,-5.4843,-5.4827,-5.4806,-5.4802,-5.4805,-5.4815,-5.4825,-5.4828,-5.4888,-5.4823,-5.4826,-5.4827,-5.4829,-5.5009,-5.5012,0,0,0,0,0,0,-5.4788,-5.4791,-5.4852,-5.4853,-5.4796,-5.4808,-5.4809,-5.4827,-5.4826,-5.4824,-5.4807,-5.4802,-5.4821,-5.4824,-5.4828,-5.4914,-5.4826,-5.4829,-5.4831,-5.5006,-5.501,-5.5013,0,0,0,0,0,0,-5.4787,-5.4794,-5.4852,-5.4821,-5.4827,-5.4812,-5.4833,-5.4829,-5.4838,-5.4827,-5.4823,-5.482,-5.4819,-5.4823,-5.4873,-5.4914,-5.483,-5.4833,-5.5003,-5.5008,-5.5012,-5.5088,0,0,0,0,0,0,-5.4785,-5.4794,-5.4823,-5.4822,-5.4829,-5.4898,-5.4835,-5.4831,-5.4844,-5.4837,-5.4839,-5.4836,-5.4817,-5.4869,-5.4876,-5.4917,-5.4836,-5.4999,-5.5005,-5.501,-5.5081,-5.5094,-5.5105,0,0,0,0,0,-5.4782,-5.4843,-5.4824,-5.4832,-5.4864,-5.49,-5.4904,-5.4882,-5.4848,-5.4876,-5.4869,-5.4836,-5.4908,-5.4874,-5.4882,-5.4924,-5.4997,-5.5003,-5.501,-5.5076,-5.5092,-5.5105,0,0,0,0,0,0,-5.4847,-5.4842,-5.4822,-5.4885,-5.4894,-5.489,-5.4924,-5.4899,-5.4917,-5.491,-5.488,-5.4881,-5.4936,-5.4935,-5.4897,-5.4995,-5.4946,-5.4955,-5.4994,-5.5009,-5.502,-5.5019,-5.4838,0,0,0,0,0,-5.4869,-5.49,-5.4893,-5.4949,-5.4955,-5.4939,-5.4954,-5.4936,-5.4944,-5.4947,-5.4943,-5.4951,-5.4975,-5.4992,-5.5014,-5.5081,-5.508,-5.5114,-5.5126,-5.5135,-5.5143,-5.5179,-5.5193,-5.5035,-5.5035,-5.5035,0,0,-5.4915,-5.4916,-5.4937,-5.4963,-5.4967,-5.4999,-5.4943,-5.4978,-5.5001,-5.4952,-5.4999,-5.4996,-5.5003,-5.5062,-5.5088,-5.5063,-5.5187,-5.5144,-5.5152,-5.5154,-5.5187,-5.5202,-5.5215,-5.504,-5.5039,-5.5038,0,0,-5.5014,-5.5018,-5.5065,-5.5071,-5.508,-5.5069,-5.508,-5.5081,-5.5078,-5.5124,-5.5088,-5.5115,-5.5157,-5.5164,-5.5173,-5.5275,-5.5246,-5.5283,-5.5344,-5.5379,-5.5392,-5.5403,-5.5439,-5.5453,-5.529,-5.5291,-5.5291,0,-5.5069,-5.5116,-5.5092,-5.5131,-5.5143,-5.5101,-5.5149,-5.5156,-5.517,-5.518,-5.5152,-5.5205,-5.5206,-5.5266,-5.5291,-5.53,-5.5312,-5.5282,-5.5392,-5.5403,-5.5413,-5.5447,-5.5461,-5.5295,-5.5294,-5.5294,-5.5294,0,-5.5183,-5.5216,-5.5253,-5.527,-5.5287,-5.5329,-5.5312,-5.5331,-5.5312,-5.5304,-5.5352,-5.5353,-5.5374,-5.5387,-5.5368,-5.5445,-5.5429,-5.5397,-5.5347,-5.5433,-5.5465,-5.5478,-5.5301,-5.53,-5.5298,-5.5297,0,0,-5.5323,-5.5327,-5.5341,-5.5349,-5.5355,-5.538,-5.542,-5.5443,-5.546,-5.5471,-5.5504,-5.5542,-5.5513,-5.5523,-5.5505,-5.5536,-5.5617,-5.55,-5.55,-5.5522,-5.5701,-5.5725,-5.574,-5.5598,-5.56,-5.5602,-5.57,0,-5.542,-5.5491,-5.5472,-5.5542,-5.5572,-5.5533,-5.5569,-5.5576,-5.557,-5.5594,-5.5586,-5.5614,-5.5573,-5.5579,-5.5608,-5.5601,-5.5652,-5.5594,-5.5628,-5.5629,-5.5627,-5.5757,-5.5782,-5.5875,-5.5713,-5.5715,-5.5716,0,-5.5543,-5.5561,-5.5635,-5.5637,-5.5649,-5.5682,-5.57,-5.5724,-5.5732,-5.5725,-5.5737,-5.5712,-5.5752,-5.5702,-5.5756,-5.5716,-5.5729,-5.5728,-5.5731,-5.5733,-5.5678,-5.5763,-5.5904,-5.5918,-5.5736,-5.5734,-5.5733,0,-5.5638,-5.5681,-5.5731,-5.5738,-5.5742,-5.5765,-5.5768,-5.5773,-5.5787,-5.5803,-5.5813,-5.5833,-5.5844,-5.586,-5.5841,-5.5807,-5.5898,-5.5846,-5.5893,-5.5893,-5.5913,-5.5912,-5.6059,-5.5922,-5.5922,-5.5921,-5.5921,0,-5.5749,-5.5796,-5.5774,-5.5804,-5.5856,-5.5832,-5.5883,-5.5881,-5.5886,-5.5915,-5.5882,-5.5909,-5.5883,-5.5908,-5.5894,-5.5941,-5.5946,-5.5941,-5.5937,-5.5944,-5.5945,-5.5952,-5.5945,-5.5925,-5.5924,-5.5924,-5.5923,0,-5.5864,-5.5851,-5.5903,-5.5902,-5.5903,-5.5941,-5.594,-5.5968,-5.596,-5.5997,-5.6004,-5.5991,-5.6019,-5.6002,-5.603,-5.602,-5.6081,-5.6068,-5.6079,-5.6076,-5.6123,-5.6119,-5.6279,-5.6299,-5.615,-5.6151,-5.6152,0,-5.5935,-5.5971,-5.5974,-5.5992,-5.5997,-5.6026,-5.6041,-5.6019,-5.6036,-5.6048,-5.6074,-5.61,-5.6119,-5.6165,-5.6158,-5.6179,-5.6166,-5.6221,-5.6169,-5.6175,-5.6167,-5.6165,-5.6168,-5.6231,-5.6233,-5.6234,-5.6235,0,-5.6063,-5.6056,-5.6079,-5.6101,-5.6121,-5.6136,-5.6149,-5.6165,-5.6144,-5.6164,-5.6193,-5.6208,-5.6238,-5.6263,-5.6282,-5.6283,-5.6256,-5.6252,-5.6264,-5.6272,-5.6277,-5.6275,-5.6108,-5.6248,-5.6247,-5.6246,-5.6245,-5.6245,-5.6159,-5.6188,-5.6196,-5.6224,-5.6231,-5.6245,-5.6271,-5.6267,-5.6291,-5.6314,-5.6299,-5.6333,-5.634,-5.6362,-5.6367,-5.6392,-5.637,-5.6387,-5.6392,-5.6396,-5.6403,-5.6273,-5.6395,-5.6395,-5.6395,-5.6394,-5.6394,0,-5.6285,-5.6289,-5.6314,-5.6334,-5.6356,-5.633,-5.6343,-5.6362,-5.6393,-5.6402,-5.6422,-5.6455,-5.648,-5.6475,-5.6497,-5.6519,-5.6507,-5.6525,-5.6523,-5.6524,-5.6421,-5.6409,-5.6534,-5.6534,-5.6534,-5.6534,-5.6534,-5.6534,-5.6354,-5.6403,-5.6396,-5.6449,-5.6451,-5.6485,-5.6495,-5.6507,-5.6514,-5.6553,-5.6574,-5.657,-5.6573,-5.6596,-5.6617,-5.6615,-5.6624,-5.6648,-5.6641,-5.6545,-5.6531,-5.6518,-5.6506,-5.665,-5.665,-5.6741,-5.6742,-5.6743]}]]